Powrót do katalogu

ATLAS 5 CENTAUR DEB

AktywnyHEO
NORAD 53516·DEBRIS·🇺🇸 United States

Wystrzelony Sep 17, 2014 z Cape Canaveral Space Force Station

Loading…

Następne Przeloty (najbliższe 24 godziny)

TLE

Starzejące sięSource: Space-Track

Epoka: Aug 30, 2026, 22:39 UTC

1 53516U 14055DP  26242.94408669 -.00000045  00000-0  00000-0 0  9997
2 53516  19.8202 148.9854 4737334 153.5563 241.3496  1.82544296 27449

Śledź ATLAS 5 CENTAUR DEB w czasie rzeczywistym z AllMySat

Download on the App Store